Location: Caltech
(34.1382°N, 118.1253°W)
Time: 08:52:06
(UTC-07:00)

Cosmos 1697 Rocket - Visible Passes

Search period start: 30 September 2014 00:00
Search period end: 10 October 2014 00:00
Orbit: 834 x 843 km, 71.0° (Epoch: 30 September)

Date Brightness Start Highest point End Pass type
(mag) Time Alt. Az. Time Alt. Az. Time Alt. Az.
30 Sep 5.7 05:03:33 10° NE 05:05:08 11° NE 05:06:43 10° ENE visible
30 Sep 3.0 19:47:26 10° S 19:52:38 40° ESE 19:57:50 10° NE visible
30 Sep 4.7 21:32:11 10° WSW 21:36:41 24° WNW 21:41:12 10° N visible
01 Oct 5.9 04:48:23 10° NE 04:49:01 10° NE 04:49:40 10° ENE visible
01 Oct 3.2 19:31:30 10° S 19:36:36 37° ESE 19:41:43 10° NE visible
01 Oct 4.6 21:15:57 10° WSW 21:20:36 26° WNW 21:25:15 10° N visible
02 Oct 2.9 06:12:09 10° NNW 06:17:46 77° ENE 06:23:21 10° SSE visible
02 Oct 3.3 19:15:35 10° SSE 19:20:35 34° ESE 19:25:35 10° NE visible
02 Oct 4.6 20:59:44 10° WSW 21:04:30 28° WNW 21:09:18 10° N visible
03 Oct 3.0 05:56:07 10° NNW 06:01:43 71° ENE 06:07:17 10° SSE visible
03 Oct 3.4 18:59:41 10° SSE 19:04:33 31° ESE 19:09:27 10° NE visible
03 Oct 4.5 20:43:32 10° WSW 20:48:25 30° WNW 20:53:20 10° N visible
04 Oct 3.1 05:40:05 10° NNW 05:45:40 65° ENE 05:51:12 10° SSE visible
04 Oct 4.4 20:27:21 10° SW 20:32:21 32° WNW 20:37:22 10° N visible
05 Oct 3.2 05:24:04 10° NNW 05:29:36 60° ENE 05:35:07 10° SSE visible
05 Oct 4.3 20:11:10 10° SW 20:16:16 35° WNW 20:21:23 10° N visible
06 Oct 3.3 05:08:02 10° NNW 05:13:33 56° ENE 05:19:01 10° SE visible
06 Oct 4.2 19:55:00 10° SW 20:00:11 37° WNW 20:05:24 10° N visible
07 Oct 3.5 04:52:01 10° N 04:57:29 51° ENE 05:02:54 10° SE visible
07 Oct 4.1 19:38:51 10° SW 19:44:07 40° WNW 19:49:24 10° N visible
08 Oct 3.6 04:36:01 10° N 04:41:25 47° ENE 04:46:47 10° SE visible
08 Oct 3.9 06:21:09 10° WNW 06:24:55 19° W 06:28:42 10° SW visible
08 Oct 3.9 19:22:43 10° SW 19:28:03 44° WNW 19:33:24 10° N visible
09 Oct 3.7 04:20:00 10° N 04:25:21 44° ENE 04:30:39 10° SE visible
09 Oct 3.8 06:04:54 10° NW 06:08:55 20° W 06:12:54 10° SSW visible
09 Oct 3.8 19:06:35 10° SW 19:11:59 47° WNW 19:17:24 10° N visible
